Portada
METAR-TAF:

METAR-TAF

Aeroports :

Block Island, Rhode Island, Estats Units d'Amèrica

latitud: 41-10N, longitud: 071-34W, altitud: 33 m

Observació

L'informe es va fer fa 36 minuts, a les 08:56 UTC
Vent 11 kt del Nord/Nord-Est
Temperatura 6°C
Humitat 81%
Pressió 1010 hPa
Visibilitat: 16.1 km
Cel cobert a una alçada de 1100 ft

METAR: KBID 200856Z AUTO 02011KT 10SM OVC011 06/03 A2983 RMK AO2 SLP102 T00560033 53004

Hora: 04:32 (09:32 UTC)


TAF: manca

Observacions i pronòstics meteorològics de més de 4000 aeroports (METAR i TAF).

Les estacions disponibles són els punts grocs i vermells al mapa.

Posi el ratolí al punt desitjat per veure el nom de l'estació.

Feu clic per veure les observacions i els pronòstics meteorològics.

Per canviar el mapa: feu clic els botons verds amb una creu de color negre per apropar; al botó verd amb un guió per allunyar la imatge; o en les fletxes verdes per a mapes adjacents.


METAR-TAF: